STARLINK-5096, 54006

Orbit data source: Space-Track

STARLINK-5096, 54006 is a payload satellite owned by SpaceX/Seattle (US) in LEO that was launched on Wed, 05 Oct 2022 UTC via an FALCON 9 launch vehicle from the Air Force Western Test Range (AFWTR). Payload-class satellites include a variety of spacecraft equipped with specific instruments for various scientific and technological missions. These include communications satellites like Starlink; space stations such as the ISS; scientific satellites like the Hubble; Earth observation satellites from companies like Planet Labs, Umbra, and HawkEye 360; GPS; miniature CubeSats for education and research; and military/defense satellites.

Loading next visibility...
Identifier
54006, 2022-125AU
Orbit
LEO
Country
Flag of USUS
Related business
Manufacturer
SpaceX/Seattle
Mission
Operational Commercial Communications
Bus & Motor
STARLINK, Unknown motor
Mass
305 kg wet, ~290 kg dry
Launch date (UTC)
2022-10-05 (4 years ago)
Launch vehicle
FALCON 9
Launch site
Air Force Western Test Range (AFWTR)
Object type
Payload
Rocket body
Debris
Shape & HBR
Box + 1 Pan, 10.1 m
Radar Cross Section
13.562 m², Large (>1 m²)

Expand to show TLE details & history
Last TLE update: 3 days ago

TLE from 3 days ago
0 STARLINK-5096
1 54006U 22125AU  26170.84014138  .00000804  00000-0  60964-4 0  9993
2 54006  53.1622 114.7490 0001631 114.7898 245.3266 15.13572408204887
Epoch: 2026-06-19T20:09Z
TLE epoch observation values (Epoch: 2026-06-19T20:09:48.215Z)
Latitude
0.00005°
Longitude
-95.76521°
Altitude
526.68 km
Speed
7.601 km/s
True Right ascension
07h 38m 59s
True Declination
0° 00' 00"
Sunlit
Object was in daylight at epoch
Visualization orbit readout
Latitude
Unknown
Longitude
Unknown
Altitude
Unknown
Speed
Unknown
Apparent Right ascension
Unknown
Apparent Declination
Unknown
Sunlit
N/A
Visualization observer readout
Local Sidereal Time
21:28:06
Azimuth
Unknown
Elevation
Unknown
Doppler factor
Unknown
Orbital elements
Apogee altitude
526.696 km
Perigee altitude
524.444 km
Semi-major axis
6,903.707 km
Eccentricity
0.00016
Inclination
53.1622°
RAAN
114.749°
Arg. of periapsis
114.7898°
True anomaly
245.30962°
Mean anomaly
245.3266°
Eccentric anomaly
245.31811°
Mean motion
3.78373 °/min
Orbital period
95.14 mins
BSTAR
0.000060964
Loading maneuver chart data...
Computing Atmospheric mass density...
Loading historical data...
Loading historical data...
Loading historical data...
Loading historical data...
Loading historical data...
Loading historical data...
Loading historical data...

Documentation

Showing up to 5 results
|